Terminal Aerodrome Forecast
Issued by NWS

Home | Current Version | Previous Version | Text Only | Print | Product List | Glossary On
Versions: 1 2 3 4 5 6 7 8 9 10 11 12
171
FTUS42 KMLB 270541
TAFSUA
TAF
KSUA 270541Z 2706/2806 27003KT P6SM FEW030 SCT080 BKN250
     FM271300 20004KT P6SM SCT025 SCT080 BKN250
     FM271800 14007KT P6SM VCSH SCT035 SCT100 BKN250
     FM272000 16008KT P6SM VCTS SCT035CB BKN060
      TEMPO 2720/2723 3SM TSRA BKN025CB
     FM280000 24003KT P6SM SCT025 BKN100 BKN250
      AMD LTD TO CLD AND WIND TIL 271100=

USA.gov is the U.S. government's official web portal to all federal, state and local government web resources and services.